Погода в Бережновке

Россия / Волгоградская область     50°15′27″N   45°53′55″E
темп.,
°C
ветер,
м/с
пор.,
м/с
влажн.,
%
обл.,
%
осадки,
мм/ч
давл.,
гПа
погр.,
м
15 апреля, чт
чт1500:00+12в51356100 0.0 1017216
03:00+10в346497 0.0 101746
06:00+10всв33636 0.0 101623
09:00+16в4643100 0.0 1016375
12:00+20вюв5733100 0.0 1015817
15:00+21юв5629100 0.0 10141400
18:00+18в4742100 0.0 1014102
21:00+15в4648100 0.0 101587
16 апреля, пт
пт1600:00+13всв22519 0.0 101514
03:00+12ссв3354100 0.0 101521
06:00+11с345910 0.0 101643
09:00+15с344822 0.0 1016327
12:00+18ссз3439100 0.0 1016764
15:00+19сз3336100 0.0 1016951
18:00+17сз454523 0.0 101674
21:00+15ссв33505 0.0 101719
17 апреля, сб
сб1700:00+13юв345993 0.0 101850
03:00+12юв226210 0.0 101815
06:00+12в336456 0.0 101842
09:00+16юв354972 0.0 1018498
12:00+19ю3539100 0.1 10181882
15:00+14зюз7967100 2.1 1019486
18:00+11з7984100 1.6 1020525
21:00+10сз248782 3.0 1021197
18 апреля, вс
вс1800:00+9сз33850 0.0 102148
03:00+8ссз22830 0.0 102123
06:00+7с24810 0.0 1021105
09:00+11сз236175 0.0 1021409
12:00+13сз234964 0.0 10201027
15:00+15ссз344396 0.0 10191273
18:00+14с344999 0.0 1019115
21:00+12ссв4661100 0.0 1019144
19 апреля, пн
пн1900:00+10ссв478194 0.0 1019178
03:00+9с368798 0.0 1019148
06:00+8с359152 0.0 1018126
09:00+12ссв237988 0.0 1018544
12:00+15св345696 0.1 10171231
15:00+12всв7967100 0.3 1017712
18:00+11св6972100 0.3 1018596
21:00+10св61077100 0.5 1018545